User: anonymous   Login
Location: *
(46.1200°N, 11.2700°E)
Time: 23:16:36
(UTC+00:00)
Language:

COSMOS 2428 - Orbit

View from above orbital plane
View from above orbital plane
View from above satellite
View from above satellite

Ground track
Ground track

The orbit data is extracted from the following two-line orbital elements,

1 31792U 07029A   21129.80448943  .00000226  00000-0  14909-3 0  9991
2 31792  70.8945 307.1958 0010021 282.3763  77.6236 14.12260717714942
Epoch (UTC): 09 May 2021 19:18:27
Eccentricity: 0.0010021
inclination: 70.8945°
perigee height: 844 km
apogee height: 859 km
right ascension of ascending node: 307.1958°
argument of perigee: 282.3763°
revolutions per day: 14.12260717
mean anomaly at epoch: 77.6236°
orbit number at epoch: 71494

The dashed part of the orbit path shows where the satellite is in the earth's shadow,  

DLR